User: anonymous   Login
Location: Saint-Denis
(20.8800°S, 55.4481°E)
Time: 01:48:13
(UTC+04:00)
Language:

AO-92 - Orbit

View from above orbital plane
View from above orbital plane
View from above satellite
View from above satellite

Ground track
Ground track

The orbit data is extracted from the following two-line orbital elements,

1 43137U 18004AC  23155.18574976  .00030355  00000-0  63999-3 0  9999
2 43137  97.3291 234.2447 0006553 174.8789 185.2528 15.45167066300308
Epoch (UTC): 04 June 2023 04:27:28
Eccentricity: 0.0006553
inclination: 97.3291°
perigee height: 426 km
apogee height: 435 km
right ascension of ascending node: 234.2447°
argument of perigee: 174.8789°
revolutions per day: 15.45167066
mean anomaly at epoch: 185.2528°
orbit number at epoch: 30030

The dashed part of the orbit path shows where the satellite is in the earth's shadow,  

DLR